This demonstration page uses our WeatherBlox Daily Observations layout. Learn more.

Left ArrowRight Arrow

Hourly Observations for August 29, 2020

Temp ( °F °C ) Dew Point ( °F °C ) Humidity (%) Winds ( mph kmh ) Pressure ( in mb ) Visibility ( mi km ) Precip ( " mm )
12:51 am 00:51 Clear 89 31.7 50 10 26 26 WNW 8 13 29.7 1006 10 16.0934 0 0
1:51 am 01:51 Mostly Clear 88 31.1 50 10 27 27 W 7 11 29.72 1007 10 16.0934 0 0
2:51 am 02:51 Cloudy 84 28.9 54 12.2 36 36 NNW 6 9 29.72 1007 10 16.0934 0 0
3:51 am 03:51 Clear 88 31.1 53 11.7 30 30 NNW 10 17 29.69 1005 10 16.0934 0 0
4:51 am 04:51 Clear 87 30.6 53 11.7 31 31 NW 13 20 29.71 1006 10 16.0934 0 0
5:51 am 05:51 Clear 85 29.4 55 12.8 36 36 WNW 10 17 29.73 1007 10 16.0934 0 0
6:51 am 06:51 Sunny 85 29.4 55 12.8 36 36 W 6 9 29.77 1008 10 16.0934 0 0
7:51 am 07:51 Sunny 87 30.6 55 12.8 34 34 WNW 12 19 29.78 1009 10 16.0934 0 0
8:51 am 08:51 undefined 90 32.2 55 12.8 31 31 NW 15 24 29.8 1009 10 16.0934 0 0
9:51 am 09:51 Sunny 93 33.9 56 13.3 29 29 WNW 15 24 29.79 1009 10 16.0934 0 0
10:51 am 10:51 Sunny 95 35 56 13.3 27 27 WNW 16 26 29.79 1009 10 16.0934 0 0
11:51 am 11:51 Sunny 99 37.2 55 12.8 23 23 WNW 14 22 29.76 1008 10 16.0934 0 0
12:51 pm 12:51 Sunny 100 37.8 55 12.8 22 22 W 15 24 29.73 1007 10 16.0934 0 0
1:51 pm 13:51 Sunny 102 38.9 52 11.1 19 19 WNW 12 19 29.69 1006 10 16.0934 0 0
2:51 pm 14:51 Sunny 102 38.9 55 12.8 21 21 WNW 14 22 29.66 1004 10 16.0934 0 0
3:51 pm 15:51 Sunny 103 39.4 56 13.3 21 21 W 21 33 29.64 1004 10 16.0934 0 0
4:51 pm 16:51 Sunny 101 38.3 56 13.3 22 22 NW 18 30 29.63 1003 10 16.0934 0 0
5:51 pm 17:51 Sunny 98 36.7 56 13.3 24 24 WNW 16 26 29.64 1004 10 16.0934 0 0
6:51 pm 18:51 Clear 95 35 56 13.3 27 27 WNW 16 26 29.66 1004 10 16.0934 0 0
7:51 pm 19:51 Mostly Clear 89 31.7 59 15 36 36 S 21 33 29.73 1007 10 16.0934 0 0
8:31 pm 20:31 Cloudy with Nearby Thunderstorms 81 27.2 62 16.7 53 53 S 23 37 29.73 1007 10 16.0934 0 0
8:46 pm 20:46 Mostly Cloudy with Light Rain 81 27 63 17 54 54 S 22 35 29.74 1007 10 16.0934 0.001 0.001
8:51 pm 20:51 Mostly Cloudy with Light Rain 79 26.1 65 18.3 62 62 S 17 28 29.78 1009 10 16.0934 0.001 0.001
9:10 pm 21:10 Mostly Cloudy with Thunderstorms 76 24.4 66 18.9 72 72 SE 13 20 29.81 1009 8 12.87472 0.11 2.794
9:31 pm 21:31 Mostly Cloudy with Nearby Thunderstorms 72 22.2 67 19.4 84 84 NNW 16 26 29.88 1012 4 6.43736 0.15 3.81
9:51 pm 21:51 Cloudy with Nearby Thunderstorms 72 22.2 69 20.6 91 91 NW 7 11 29.89 1012 6 9.65604 0.21 5.334
10:12 pm 22:12 Cloudy with Light Rain 72 22.2 69 20.6 91 91 NNE 7 11 29.91 1013 10 16.0934 0.02 0.508
10:51 pm 22:51 Cloudy with Light Rain 72 22.2 70 21.1 94 94 N 9 15 29.92 1013 8 12.87472 0.13 3.302
11:51 pm 23:51 Mostly Cloudy with Rain 71 21.7 67 19.4 87 87 NNE 15 24 29.89 1012 9 14.48406 0.09 2.286

Powered by AerisWeather